Fort Myers, FL

9:00 AM EST on November 24, 2017 (GMT -0500)
Page

Weather History for KFMY - May, 2012

Change the Weather History Date:

Wednesday, May 9, 2012

  Actual Average Record
Temperature  
Mean Temperature 80 °F 78 °F  
Max Temperature 88 °F 89 °F 95 °F (1962)
Min Temperature 72 °F 67 °F 54 °F (1958)
Degree Days  
Heating Degree Days 0 0  
Month to date heating degree days 0 0  
Since 1 July heating degree days 129 287  
Cooling Degree Days 15 13  
Month to date cooling degree days 142 108  
Year to date cooling degree days 1072 738  
Growing Degree Days 30 (Base 50)    
Moisture  
Dew Point 70 °F    
Average Humidity 71    
Maximum Humidity 93    
Minimum Humidity 55    
Precipitation  
Precipitation 0.23 in 0.06 in 1.72 in (1949)
Month to date precipitation 0.47 0.52  
Year to date precipitation 4.50 9.67  
Sea Level Pressure  
Sea Level Pressure 29.87 in    
Wind  
Wind Speed 7 mph (WSW)    
Max Wind Speed 26 mph    
Max Gust Speed 35 mph    
Visibility 9 miles    
Events Rain    
T = Trace of Precipitation, MM = Missing Value Source: NWS Daily Summary

Daily Weather History Graph

Daily Weather History Graph

Search for Another Location

Airport or City:

Trip Planner

Search our weather history database for the weather conditions in past years. The results will help you decide how hot, cold, wet, or windy it might be!

Date:

Astronomy

May. 09, 2012 Rise Set
Actual Time 6:43 AM EDT 8:04 PM EDT
Civil Twilight 6:18 AM EDT 8:29 PM EDT
Nautical Twilight 5:49 AM EDT 8:59 PM EDT
Astronomical Twilight 5:18 AM EDT 9:29 PM EDT
Moon No Moon Rise 10:02 AM EDT (5/9)
Length of Visible Light 14h 10m
Length of Day
13h 21m
Waning Gibbous, 83% of the Moon is Illuminated
May 9
Waning Gibbous
May 12
Last Quarter
May 20
New
May 28
First Quarter
Jun 4
Full

Hourly Weather History & Observations

Time (EDT) Temp. Heat Index Dew Point Humidity Pressure Visibility Wind Dir Wind Speed Gust Speed Precip Events Conditions
12:53 AM 73.9 °F - 68.0 °F 82% 29.91 in 10.0 mi South 4.6 mph - N/A   Clear
1:53 AM 73.0 °F - 68.0 °F 84% 29.90 in 10.0 mi Calm Calm - N/A   Partly Cloudy
2:53 AM 73.0 °F - 68.0 °F 84% 29.90 in 10.0 mi Calm Calm - N/A   Clear
3:53 AM 73.9 °F - 68.0 °F 82% 29.89 in 10.0 mi Calm Calm - N/A   Clear
4:53 AM 73.0 °F - 68.0 °F 84% 29.89 in 10.0 mi Calm Calm - N/A   Scattered Clouds
5:53 AM 72.0 °F - 68.0 °F 87% 29.89 in 10.0 mi Calm Calm - N/A   Clear
6:53 AM 72.0 °F - 69.1 °F 91% 29.89 in 10.0 mi ESE 3.5 mph - N/A   Clear
7:53 AM 75.0 °F - 70.0 °F 84% 29.91 in 10.0 mi SSE 4.6 mph - N/A   Partly Cloudy
8:53 AM 80.1 °F 83.8 °F 72.0 °F 76% 29.91 in 10.0 mi Calm Calm - N/A   Clear
9:53 AM 82.9 °F 86.5 °F 69.1 °F 63% 29.91 in 10.0 mi SW 4.6 mph - N/A   Partly Cloudy
10:49 AM 84.2 °F 88.4 °F 69.8 °F 62% 29.90 in 10.0 mi WSW 8.1 mph - N/A   Mostly Cloudy
10:53 AM 84.9 °F 88.8 °F 69.1 °F 59% 29.91 in 10.0 mi WSW 6.9 mph - N/A   Mostly Cloudy
11:45 AM 86.0 °F 90.4 °F 69.8 °F 58% 29.90 in 10.0 mi WSW 8.1 mph 17.3 mph N/A   Overcast
11:53 AM 86.0 °F 90.1 °F 69.1 °F 57% 29.91 in 10.0 mi SW 10.4 mph 17.3 mph N/A   Mostly Cloudy
12:53 PM 87.1 °F 92.0 °F 70.0 °F 57% 29.90 in 10.0 mi West 11.5 mph 18.4 mph N/A   Scattered Clouds
1:53 PM 87.1 °F 92.0 °F 70.0 °F 57% 29.88 in 10.0 mi WSW 13.8 mph 19.6 mph N/A   Scattered Clouds
2:53 PM 87.1 °F 91.3 °F 69.1 °F 55% 29.86 in 10.0 mi SW 11.5 mph - N/A   Partly Cloudy
3:36 PM 86.0 °F 90.4 °F 69.8 °F 58% 29.84 in 10.0 mi WSW 13.8 mph 19.6 mph N/A   Mostly Cloudy
3:53 PM 87.1 °F 92.0 °F 70.0 °F 57% 29.84 in 10.0 mi WSW 15.0 mph 19.6 mph N/A   Mostly Cloudy
4:07 PM 87.8 °F 92.6 °F 69.8 °F 55% 29.83 in 10.0 mi SW 11.5 mph 20.7 mph N/A   Scattered Clouds
4:53 PM 87.1 °F 91.3 °F 69.1 °F 55% 29.82 in 10.0 mi West 15.0 mph 24.2 mph N/A   Partly Cloudy
5:53 PM 84.0 °F 88.4 °F 70.0 °F 63% 29.83 in 10.0 mi WSW 15.0 mph 19.6 mph N/A   Partly Cloudy
6:53 PM 82.0 °F 86.3 °F 71.1 °F 69% 29.82 in 9.0 mi WSW 11.5 mph - N/A   Partly Cloudy
7:53 PM 81.0 °F 84.9 °F 71.1 °F 72% 29.83 in 9.0 mi WSW 10.4 mph - N/A   Partly Cloudy
8:53 PM 81.0 °F 85.2 °F 72.0 °F 74% 29.83 in 10.0 mi West 11.5 mph - N/A   Scattered Clouds
9:53 PM 81.0 °F 84.9 °F 71.1 °F 72% 29.84 in 10.0 mi WSW 10.4 mph - N/A   Scattered Clouds
10:04 PM 75.2 °F - 69.8 °F 83% 29.86 in 1.8 mi WNW 20.7 mph 34.5 mph 0.02 in Rain Heavy Rain
10:15 PM 73.4 °F - 68.0 °F 83% 29.85 in 3.0 mi Calm Calm - 0.22 in Rain Light Rain
10:53 PM 75.9 °F - 71.1 °F 85% 29.85 in 10.0 mi WSW 4.6 mph - 0.23 in   Overcast
11:53 PM 75.9 °F - 72.0 °F 87% 29.85 in 10.0 mi Calm Calm - N/A   Clear